Regional Weather Roundup
Issued by NWS

Home | Current Version | Previous Version | Text Only | Print | Product List | Glossary On
Versions: 1 2 3 4 5 6 7 8 9 10 11 12 13 14 15 16 17 18 19 20 21 22 23 24 25 26 27
000
ASUS45 KBOU 200007
RWRCO

WEATHER ROUNDUP FOR COLORADO
NATIONAL WEATHER SERVICE DENVER/BOULDER CO
600 PM MDT THU OCT 19 2017

NOTE: "FAIR" INDICATES FEW OR NO CLOUDS BELOW 12000 FEET WITH NO
SIGNIFICANT WEATHER AND/OR OBSTRUCTIONS TO VISIBILITY.

COZ001>005-013-030-031-200100-
...NORTHWEST COLORADO...

CITY           SKY/WX    TMP DP  RH WIND       PRES   REMARKS
CRAIG          CLOUDY    67  30  25 SW12      29.98F
HAYDEN         FAIR      63  30  28 W8        30.02S
MEEKER         MOCLDY    66  32  28 S7        30.00F
RABBIT EARS PA FAIR      45  21  39 W12       30.24S
STEAMBOAT SPGS FAIR      64  25  23 W10       30.02S
WALDEN         NOT AVBL
$$

COZ006>008-011-200100-
...WEST CENTRAL VALLEYS...

CITY           SKY/WX    TMP DP  RH WIND       PRES   REMARKS
GRAND JUNCTION FAIR      66  24  20 S7        29.94F
MONTROSE       FAIR      66  30  26 NW6       29.99F
EAGLE          FAIR      65  28  24 SW10      30.02F
RIFLE          MOCLDY    68  29  23 W8        29.96F
DELTA          FAIR      73  26  17 W9        29.96S
NUCLA          CLOUDY    66  28  24 W7        30.05F
$$

COZ017>023-064>068-200100-
...SOUTHWEST COLORADO...

CITY           SKY/WX    TMP DP  RH WIND       PRES   REMARKS
DURANGO        FAIR      64  30  27 SW14      30.06F
CORTEZ         MOCLDY    66  29  24 NW6       30.03F
PAGOSA SPRINGS FAIR      64  22  20 SW12G17   30.12F
TELLURIDE      CLOUDY    57  23  26 S5        30.19F
WOLF CREEK PAS FAIR      43  21  42 SW14G24   30.40S
$$

COZ009-010-012-014-032>034-037-058>063-200100-
...CENTRAL COLORADO...

CITY           SKY/WX    TMP DP  RH WIND       PRES   REMARKS
ASPEN          FAIR      61  22  22 N13       30.07S
BUENA VISTA    MOCLDY    60  12  15 SE8       30.08F
COPPER MTN     FAIR      46  19  34 W14       30.33F
BERTHOUD PASS  FAIR      37  28  70 NW6       30.36F
COTTONWOOD PAS MOCLDY    61  16  17 CALM      30.21S
GUNNISON       FAIR      62  24  23 W3        30.07F
KREMMLING      FAIR      64  19  17 W5        30.05R
LEADVILLE      FAIR      52  18  26 W7        30.18F
SALIDA         FAIR      66  11  11 S12G20    30.12F
SUNLIGHT       MOCLDY    45  23  42 SW8       30.29F
WILKERSON PASS FAIR      48   9  20 SW7       30.32F
$$

COZ069>075-200100-
...SAN LUIS VALLEY/SANGRE DE CRISTO MOUNTAINS...

CITY           SKY/WX    TMP DP  RH WIND       PRES   REMARKS
ALAMOSA        FAIR      65  18  16 CALM      30.07F
DEL NORTE      FAIR      60  22  23 E5        30.11F
LA VETA PASS   FAIR      52  16  24 S9G17     30.36S
SAGUACHE       FAIR      61  19  20 S3        30.11F
$$

COZ035-036-038>040-200100-
...NORTHERN COLORADO FRONT RANGE...

CITY           SKY/WX    TMP DP  RH WIND       PRES   REMARKS
DENVER INTL AP MOCLDY    65  30  27 NE5       29.91F
DMNS CITY PARK   N/A     67  27  22 NE12      29.91S
AURORA         MOCLDY    68  28  22 SW3       29.93F
FRONT RANGE AP MOCLDY    70  25  18 SE10      29.93S
ERIE MUNI ARPT FAIR      65  33  29 CALM      29.95F
BOULDER MUN AP FAIR      66  32  28 CALM      29.91S
CENTENNIAL     MOCLDY    70  25  18 CALM      29.94S
BROOMFIELD     MOCLDY    66  28  24 N5        29.94F
FORT COLLINS   FAIR      66  30  26 NE3       29.91
LONGMONT       FAIR      65  38  37 CALM      29.92S
$$

COZ041-046-047-076>085-087-088-200100-
...PIKES PEAK/PALMER DIVIDE AND SOUTHERN FOOTHILLS...

CITY           SKY/WX    TMP DP  RH WIND       PRES   REMARKS
COLO. SPRINGS  CLOUDY    63  25  23 SE12      30.02S
A. F. ACADEMY  FAIR      62  22  21 S7        30.02F
SCHRIEVER AFB  FAIR      60  26  26 S6        30.02F
CHEYENNE MTN   FAIR      61  24  24 S9        30.00F
ELLICOTT       FAIR     N/A N/A N/A SE7       30.01F
FALCON         FAIR      60  23  24 S3        30.06S
FORT CARSON    FAIR      65  26  22 S7        29.99F
LIMON          FAIR      61  34  36 SE13      29.97F
MONUMENT HILL  FAIR      57  23  26 S13       30.05F
CANON CITY     FAIR      68  32  26 NE7       29.96F
WALSENBURG     FAIR      66  27  22 N7        29.97F
TRINIDAD       FAIR      68  23  18 S8        29.97F
$$

COZ042>045-048>051-090-091-200100-
...NORTHEAST COLORADO...

CITY           SKY/WX    TMP DP  RH WIND       PRES   REMARKS
GREELEY ARPT   FAIR      59  40  49 N3        29.89F HAZE
AKRON          FAIR      70  35  27 SE13      29.91F
BURLINGTON     FAIR      68  45  43 S16       29.95S
WRAY           NOT AVBL
YUMA           FAIR      68  36  30 SE8       29.90S
STERLING       FAIR      73  37  27 S14       29.85S
HOLYOKE        FAIR      73  41  31 S12       29.89S
FORT MORGAN    FAIR      70  26  19 SE10      29.89S
$$

COZ086-089-092>099-200100-
...SOUTHEAST COLORADO...

CITY           SKY/WX    TMP DP  RH WIND       PRES   REMARKS
PUEBLO         FAIR      72  38  29 E10       29.91F
LA JUNTA       FAIR      69  37  30 E7        29.89F
LAMAR          FAIR      72  42  34 SE8       29.88F
SPRINGFIELD      N/A     67  49  52 S15       29.96S
$$




USA.gov is the U.S. government's official web portal to all federal, state and local government web resources and services.